Welcome to the New NWS' Forecast!
Most changes are behind the scenes, but click here for differences you might notice.

Regional Weather Roundup (RWR)

Issued by Pendleton, OR (PDT)

                            
481 
ASUS46 KPDT 201304
RWRPDT
PENDLETON REGIONAL WEATHER ROUNDUP
NATIONAL WEATHER SERVICE PENDLETON OREGON
600 AM PDT MON AUG 20 2018

NOTE: FAIR INDICATES FEW OR NO CLOUDS BELOW 12,000 FEET WITH NO
SIGNIFICANT WEATHER AND/OR OBSTRUCTIONS TO VISIBILITY.

# INDICATES UNOFFICIAL STATION AND DATA

WAZ520-201410-
EAST SLOPES OF WASHINGTON CASCADES

CITY            SKY/WX      TMP DP  RH  WIND    PRES   REMARKS
#BULLFROG       N/A         53  51  93  CALM    N/A                          
#CLE ELUM HS    N/A         53  49  86  CALM    29.98S                       
#EASTON DOT     N/A         N/A N/A N/A CALM    N/A                          
#ELK HTS DOT    N/A         58  58  100 CALM    N/A                          
#GLENWOOD       N/A         48  46  93  CALM    29.93S                       
#NILE           N/A         56  49  77  CALM    29.37R                       
#TEANAWAY 4NE   N/A          0   0  100 CALM    N/A                          
#TROUT LAKE 1E  N/A         51  48  89  CALM    30.03S                       
$$

WAZ521-201410-
SIMCOE HIGHLANDS

CITY            SKY/WX      TMP DP  RH  WIND    PRES   REMARKS
#BICKLETON HS   N/A         68  35  29  N18     29.68R                       
#SATUS PASS DOT N/A         59  31  34  S2      N/A                          
#CENTERVILLE 1SWN/A         53  45  74  CALM    29.87S                       
#GOLDENDALE 1NE N/A         54  17  23  NW7     N/A                          
#GOLDENDALE 4W  N/A         53  31  43  CALM    30.02R                       
#GOODNOE HILLS  N/A         66  52  61  NW5     29.88S                       
#LYLE 6NE       N/A         62  56  81  S3      29.92S                       
#PITT 4SE       N/A         58  53  83  CALM    29.92S                       
$$

WAZ026-201410-
KITTITAS VALLEY

CITY            SKY/WX      TMP DP  RH  WIND    PRES   REMARKS
ELLENSBURG AP   CLOUDY      55  46  72  CALM    30.01S HAZE                  
#ELLENSBURG CWU N/A         56  50  80  CALM    29.89F                       
#ELLENSBURG 3NE N/A         54  45  71  CALM    28.10S                       
#ELLENSBURG 1E  N/A         54  51  90  CALM    30.02S                       
#KITTITAS 3S    N/A         50  47  89  E1      29.95R                       
#MANASTASH RDG  N/A         62  62  100 W8      N/A                          
#ROCKY CYN DOT  N/A         60  57  90  W7      N/A                          
#RYEGRASS DOT   N/A         59  51  75  CALM    N/A                          
#THORP 6N       N/A         59  49  69  CALM    29.89R                       
$$

WAZ027-201410-
YAKIMA VALLEY

CITY            SKY/WX      TMP DP  RH  WIND    PRES   REMARKS
SUNNYSIDE AP    CLEAR       69  47  45  W9      29.94R HAZE                  
YAKIMA AIRPORT  CLOUDY      56  49  77  W7      29.98R HAZE                  
YAKIMA-VAGABOND N/A         63  50  62  E5      29.97R FOG                   
#DONALD 2NE     N/A         70  22  16  NW2     28.81R                       
#GRANDVIEW      N/A         62  45  54  CALM    29.92S                       
#MABTON         N/A         59  46  62  CALM    29.93R                       
#MOXEE 2E       N/A         81  N/A N/A SW3     29.86F                       
#NACHES 2SW     N/A         64  51  63  W7      30.01R                       
#OUTLOOK DOT    N/A         63  48  58  CALM    29.90S                       
#PARKER DOT     N/A         71  50  47  S12     29.94S                       
#TERRACE HTS    N/A         67  52  59  CALM    29.87S                       
#TOPPENISH      N/A         60  48  64  CALM    29.84R                       
#I82 S UMTANUM RN/A         64  52  65  N5      N/A                          
#UNION GAP DOT  N/A         68  50  53  CALM    29.99S                       
#W YAKIMA       N/A         65  51  60  W3      29.91R                       
#WILEY CITY 3W  N/A         59  43  55  CALM    29.97R                       
#ZILLAH DOT     N/A         58  51  77  W3      N/A                          
$$

WAZ028-201410-
LOWER COLUMBIA BASIN...WASHINGTON

CITY            SKY/WX      TMP DP  RH  WIND    PRES   REMARKS
PASCO           MOCLDY      57  49  75  CALM    29.93R HAZE                  
PROSSER AWOS    N/A         59  48  67  SW8     29.96S                       
RICHLAND AWOS   PTCLDY      58  46  64  CALM    29.93R HAZE                  
#BASIN CITY 5SW N/A         57  49  75  N2      29.90R                       
#BENTON CITY    N/A         78  39  25  CALM    29.79F                       
#CONNELL 5N     N/A         56  41  57  CALM    29.90S                       
#CONNELL 5NW    N/A         53  43  69  NW1     29.86R                       
#ELTOPIA 6NW    N/A         62  47  58  CALM    28.90S                       
#KAHLOTUS       N/A         59  38  45  CALM    29.88S                       
#KENNEWICK 3S   N/A         68  45  44  CALM    29.90S                       
#PROSSER DOT    N/A         64  43  46  CALM    29.93S                       
#SAGEMOOR 2W    N/A         63  48  58  SE1     29.77R                       
#TOUCHET 2S     N/A         63  45  52  CALM    29.88R                       
$$

WAZ029-201410-
FOOTHILLS OF THE BLUES...WASHINGTON

CITY            SKY/WX      TMP DP  RH  WIND    PRES   REMARKS
WALLA WALLA AP  SMOKE       66  39  37  S9      29.94R VSB 3/4               
#DELANEY DOT    N/A         58  47  67  CALM    29.93S                       
#PLEASANT VIEW 1N/A         64  42  45  CALM    29.88S                       
#PRESCOTT       N/A         58  50  75  CALM    29.86R                       
#WHITMAN COLLEGEN/A         66  47  50  S1      29.93R                       
#WAITSBURG 6SSE N/A         60  44  55  E1      29.69R                       
#WALLA WALLA 5E N/A         63  44  50  CALM    N/A                          
#WHITMAN MISSIONN/A         61  51  70  CALM    29.90R                       
$$

WAZ030-201410-
BLUE MOUNTAINS...WASHINGTON
 
CITY            SKY/WX      TMP DP  RH  WIND    PRES   REMARKS
#DIXIE 5SE      N/A         70  42  36  CALM    29.92S                       
$$

ORZ009-041-WAZ024-201410-
COLUMBIA RIVER GORGE

CITY            SKY/WX      TMP DP  RH  WIND    PRES   REMARKS
HOOD RIVER AP   MOCLDY      59  52  78  SW3     29.98R                       
THE DALLES AP   CLOUDY      65  55  70  SW5     29.94R                       
#ARLINGTON AIRPON/A         66  50  56  S3      29.91R                       
#CELILO DOT     N/A         71  56  59  SW3     N/A                          
#LYLE           N/A         68  57  68  N2      29.95R                       
#MARYHILL       N/A         66  54  65  N2      29.82R                       
#MURDOCK        N/A         69  59  70  W12     29.89R                       
#RUFUS DOT      N/A         71  56  59  SW2     N/A                          
#SMITHVILLE     N/A         68  58  70  N8      29.90S                       

$$

ORZ510-201410-
NORTH CENTRAL OREGON

CITY            SKY/WX      TMP DP  RH  WIND    PRES   REMARKS
#ANTELOPE       N/A         57  45  64  CALM    29.75R                       
#COW CYN RST AREN/A         66  49  54  NW7     N/A                          
#DUFUR          N/A         53  47  80  CALM    29.90S                       
#DUFUR 9E       N/A         68  52  57  SW2     29.93S                       
#GRASS VALLEY 1SN/A         59  48  67  S5      30.03S                       
#KENT DOT       N/A         60  46  60  CALM    N/A                          
#MAUPIN SCHOOL  N/A         64  52  65  CALM    30.03R                       
#SHANIKO 5WSW   N/A         N/A N/A N/A N8      N/A                          
#TYGH VALLEY 2NEN/A         66  45  47  CALM    29.91R                       
#WAPANITIA AIRPON/A         61  50  67  CALM    29.92R                       
#WASCO DOT      N/A         59  52  78  SE1     N/A                          
#WASCO 5NE      N/A         62  52  70  CALM    29.89R                       
$$

ORZ511-201410-
CENTRAL OREGON

CITY            SKY/WX      TMP DP  RH  WIND    PRES   REMARKS
BEND AIRPORT    CLEAR       57  45  64  W5      30.06S                       
MADRAS AIRPORT  N/A         N/A N/A N/A MISG    N/A                          
PRINEVILLE AP   PTCLDY      57  46  67  W6      30.05R                       
REDMOND AIRPORT CLOUDY      56  44  64  CALM    30.04S SMOKE                 
#ASHWOOD SCHOOL N/A         57  48  72  SE3     30.00R                       
#BEND 1SW       N/A         50  39  66  CALM    N/A                          
#BEND-AWBREY    N/A         60  47  62  CALM    29.86R                       
#BEND-KIM LN    N/A         58  45  62  W6      29.84R                       
#CULVER         N/A         55  46  72  CALM    29.62R                       
#CULVER 8W      N/A         57  43  59  CALM    30.03R                       
#POWELL BUTTE   N/A         62  48  60  W2      30.00S                       
#PRINEVILLE     N/A         48  43  83  CALM    29.97S                       
#PRINEVILLE 3N  N/A         52  44  74  E2      29.88S                       
#WARM SPRINGS   N/A         64  48  56  CALM    29.79S                       

$$


ORZ509-201410-
EAST SLOPES OF OREGON CASCADES

CITY            SKY/WX      TMP DP  RH  WIND    PRES   REMARKS
SISTERS AWOS    N/A         50  39  66  CALM    30.03S                       
#BLUE BOX PASS  N/A         58  N/A N/A NW7     N/A                          
#CAMP SHERMAN   N/A         46  40  79  CALM    30.01R                       
#LA PINE 4NW    N/A         40  33  76  CALM    29.95F                       
#LAVA BUTTE DOT N/A         54  42  64  CALM    N/A                          
#SISTERS ODOT   N/A         49  40  71  CALM    N/A                          
#SISTERS 3N     N/A         48  37  65  CALM    30.06S                       
#SUNRIVER       N/A         46  40  79  CALM    29.91S                       
#TUMALO 3W      N/A         64  45  50  NW2     29.75R                       
#WANOGA BUTTE D N/A         58  43  57  NE7     N/A                          

$$

ORZ044-201410-
LOWER COLUMBIA BASIN...OREGON

CITY            SKY/WX      TMP DP  RH  WIND    PRES   REMARKS
HERMISTON       MOCLDY      64  44  48  W7      29.92S HAZE                  
#BOARDMAN SCHOOLN/A         64  52  65  CALM    29.91S                       
#BOARDMAN 8SW   N/A          0  N/A N/A CALM    N/A                          
#ECHO 8SW       N/A         63  45  52  CALM    29.94S                       
#I-84 EX 198 DOTN/A         72  47  41  NE2     N/A                          
#IONE SCHOOL    N/A         64  41  43  CALM    29.91F                       
#UMATILLA       N/A         66  49  54  CALM    29.83S                       
$$

ORZ507-201410-
NORTHERN FOOTHILLS OF THE BLUES

CITY            SKY/WX      TMP DP  RH  WIND    PRES   REMARKS
PENDLETON AIRPT CLOUDY      63  37  38  N9      29.94F HAZE                  
#ADAMS 3WNW     N/A         63  38  39  NE1     29.86F                       
#CAYUSE         N/A         69  43  39  CALM    29.85F                       
#HELIX SCHOOL   N/A         63  38  39  N1      29.88S                       
#HELIX 3N       N/A         63  37  38  W2      29.98S                       
#HOLDMAN 6E     N/A         64  39  40  CALM    29.69S                       
#M-FREEWATER 5SEN/A         62  47  58  CALM    29.93S                       
#PENDLETON DNTN N/A         69  38  32  CALM    29.89F                       
#PDT SUNRIDGE   N/A         70  43  38  CALM    29.94F                       
#PENDLETON 6SE  N/A         66  45  47  S5      29.83F                       
#PENDLETON 7NW  N/A         65  44  46  CALM    32.22S                       
#TUTUILLA       N/A         63  44  50  CALM    29.98F                       
#UMAPINE 2E     N/A         60  49  67  CALM    29.89S                       

$$

ORZ508-201410-
SOUTHERN FOOTHILLS OF THE BLUES

CITY            SKY/WX      TMP DP  RH  WIND    PRES   REMARKS
#AJAX           N/A         67  42  40  CALM    30.16R                       
#HEPPNER EOC    N/A         66  38  36  CALM    29.82S                       
#HEPPNER 4NE    N/A         63  36  36  CALM    29.86F                       
#LEXINGTON 2SE  N/A         63  43  48  CALM    29.93F                       
#OLEX 4N        N/A         63  45  52  S7      29.94S                       
#RUGGS 5NE      N/A         66  33  29  CALM    30.17F                       
#RUGGS 2SW      N/A         66  37  34  W3      29.89S                       

$$

ORZ502-503-201410-
BLUE MOUNTAINS

CITY            SKY/WX      TMP DP  RH  WIND    PRES   REMARKS
MEACHAM         MOCLDY      54  52  93  CALM    30.04F FOG                   
#BATTLE MTN DOT N/A         57  47  69  N2      N/A                          
#GRANITE        N/A         58  37  45  CALM    29.77F                       
#HARDMAN 10S    N/A         62  35  36  CALM    29.95S                       
#HEPPNER 15SE   N/A         57  41  55  SE1     25.58R                       
#LADD CYN SMT   N/A         60  49  67  CALM    N/A                          
#LADD CREEK ODOTN/A         60  53  78  SW2     N/A                          
#N POWDER DOT   N/A         64  48  56  W2      N/A                          
#PIKES PEAK     N/A         65  40  40  S7      27.99S                       
#SUMMERVILLE 5NWN/A         66  46  48  CALM    26.65F                       
#TOLLGATE       N/A         58  43  57  CALM    30.12S                       
#TROY SCHOOL    N/A         65  57  75  CALM    29.71S                       
#UKIAH          N/A         61  47  60  S3      29.78S                       
#WESTON 4E      N/A         63  47  56  CALM    29.81S                       
$$

ORZ505-201410-
JOHN DAY BASIN

CITY            SKY/WX      TMP DP  RH  WIND    PRES   REMARKS
JOHN DAY        THUNDER     64  45  50  N6      30.00F HAZE                  
#ANTELOPE 9ESE  N/A         66  38  36  CALM    N/A                          
#DAYVILLE SCHOOLN/A         66  43  43  CALM    29.94R                       
#MITCHELL 8NW   N/A         64  36  35  CALM    29.88R                       
#MONUMENT HS    N/A         69  47  45  CALM    29.92R                       
$$

ORZ506-201410-
OCHOCO AND JOHN DAY HIGHLANDS

CITY            SKY/WX      TMP DP  RH  WIND    PRES   REMARKS
#HORSE RIDGE DO N/A         45  36  70  CALM    N/A                          
#PAULINA ODOT   N/A         60  37  42  SW3     N/A                          
#PINE MTN OBS   N/A         52  44  74  N7      N/A                          
#PRAIRIE CITY   N/A         58  49  72  CALM    30.14F                       
#SENECA         N/A         62  N/A N/A CALM    N/A                          
#SENECA 9NW     N/A         62  42  48  CALM    29.76F                       
$$

ORZ049-201410-
GRANDE RONDE VALLEY

CITY            SKY/WX      TMP DP  RH  WIND    PRES   REMARKS
LA GRANDE       CLOUDY      68  46  45  NW14    29.98F HAZE                  
#COVE SCHOOL    N/A         63  48  58  CALM    29.99F                       
#COVE 6NW       N/A         58  50  75  CALM    29.83F                       
#ELGIN 3N       N/A         65  47  52  CALM    29.94F                       
#ELGIN 1E       N/A         65  49  56  CALM    N/A                          
#IMBLER SCHOOL  N/A         65  48  54  CALM    29.93F                       
#ISLAND CITY 4N N/A         57  54  90  CALM    30.00S                       
#LADD CYN DOT   N/A         64  51  63  SE10    N/A                          
#UNION 1S       N/A         62  49  62  CALM    29.83F                       
$$

ORZ050-201410-
WALLOWA COUNTY

CITY            SKY/WX      TMP DP  RH  WIND    PRES   REMARKS
#ENTERPRISE HS  N/A         59  52  78  E1      29.73F                       
#IMNAHA SCHOOL  N/A         71  49  46  E2      29.97R                       
#JOSEPH         N/A         61  49  65  E1      30.26F                       
#JOSEPH 3N      N/A         56  47  72  NE2     30.08F                       
#JOSEPH 3W      N/A         59  51  75  SW1     29.92F                       
#LOSTINE        N/A         63  51  65  E1      29.66F                       
#LOSTINE 3SE    N/A         60  49  67  CALM    30.10F                       
#MT HOWARD 8000 N/A         49  38  66  NW2     30.27F                       
#PROMISE 1S     N/A         64  48  56  W5      29.92R                       
#WALLOWA LAKE   N/A         58  47  67  S1      30.11F                       
#WALLOWA SCHOOL N/A         60  53  78  E2      29.96F                       



$$